Time,TemperatureF,DewpointF,PressureIn,WindDirection,WindDirectionDegrees,WindSpeedMPH,WindSpeedGustMPH,Humidity,HourlyPrecipIn,Conditions,Clouds,dailyrainin,SoftwareType,DateUTC
2013-03-20 00:02:00,29.0,4.0,-100.00,North,-999,-999.0,-999.0,34,-99.99,,,-99.99,,2013-03-20 06:02:00,
2013-03-20 00:12:00,29.0,4.0,-100.00,North,-999,-999.0,-999.0,34,-99.99,,,-99.99,,2013-03-20 06:12:00,
2013-03-20 00:22:00,29.0,4.0,-100.00,North,-999,-999.0,-999.0,34,-99.99,,,-99.99,,2013-03-20 06:22:00,
2013-03-20 00:32:00,29.0,4.0,-100.00,North,-999,-999.0,-999.0,34,-99.99,,,-99.99,,2013-03-20 06:32:00,
2013-03-20 00:42:00,29.0,3.0,-100.00,North,-999,-999.0,-999.0,31,-99.99,,,-99.99,,2013-03-20 06:42:00,
2013-03-20 00:52:00,29.0,3.0,-100.00,North,-999,-999.0,-999.0,31,-99.99,,,-99.99,,2013-03-20 06:52:00,
2013-03-20 01:02:00,29.0,4.0,-100.00,North,-999,-999.0,-999.0,33,-99.99,,,-99.99,,2013-03-20 07:02:00,
2013-03-20 01:11:00,29.0,3.0,-100.00,North,-999,-999.0,-999.0,31,-99.99,,,-99.99,,2013-03-20 07:11:00,
2013-03-20 01:22:00,29.0,3.0,-100.00,North,-999,-999.0,-999.0,31,-99.99,,,-99.99,,2013-03-20 07:22:00,
2013-03-20 01:32:00,29.0,3.0,-100.00,North,-999,-999.0,-999.0,31,-99.99,,,-99.99,,2013-03-20 07:32:00,
2013-03-20 01:42:00,29.0,2.0,-100.00,North,-999,-999.0,-999.0,31,-99.99,,,-99.99,,2013-03-20 07:42:00,
2013-03-20 01:52:00,29.0,2.0,-100.00,North,-999,-999.0,-999.0,31,-99.99,,,-99.99,,2013-03-20 07:52:00,
2013-03-20 02:02:00,29.0,4.0,-100.00,North,-999,-999.0,-999.0,34,-99.99,,,-99.99,,2013-03-20 08:02:00,
2013-03-20 02:12:00,29.0,4.0,-100.00,North,-999,-999.0,-999.0,33,-99.99,,,-99.99,,2013-03-20 08:12:00,
2013-03-20 02:22:00,29.0,4.0,-100.00,North,-999,-999.0,-999.0,33,-99.99,,,-99.99,,2013-03-20 08:22:00,
2013-03-20 02:32:00,29.0,4.0,-100.00,North,-999,-999.0,-999.0,33,-99.99,,,-99.99,,2013-03-20 08:32:00,
2013-03-20 02:42:00,29.0,6.0,-100.00,North,-999,-999.0,-999.0,37,-99.99,,,-99.99,,2013-03-20 08:42:00,
2013-03-20 02:52:00,29.0,6.0,-100.00,North,-999,-999.0,-999.0,37,-99.99,,,-99.99,,2013-03-20 08:52:00,
2013-03-20 03:02:00,29.0,7.0,-100.00,North,-999,-999.0,-999.0,38,-99.99,,,-99.99,,2013-03-20 09:02:00,
2013-03-20 03:11:00,29.0,7.0,-100.00,North,-999,-999.0,-999.0,38,-99.99,,,-99.99,,2013-03-20 09:11:00,
2013-03-20 03:22:00,29.0,7.0,-100.00,North,-999,-999.0,-999.0,38,-99.99,,,-99.99,,2013-03-20 09:22:00,
2013-03-20 03:32:00,29.0,7.0,-100.00,North,-999,-999.0,-999.0,38,-99.99,,,-99.99,,2013-03-20 09:32:00,
2013-03-20 03:43:00,29.0,10.0,-100.00,North,-999,-999.0,-999.0,43,-99.99,,,-99.99,,2013-03-20 09:43:00,
2013-03-20 03:53:00,29.0,10.0,-100.00,North,-999,-999.0,-999.0,43,-99.99,,,-99.99,,2013-03-20 09:53:00,
2013-03-20 04:03:00,30.0,12.0,-100.00,North,-999,-999.0,-999.0,46,-99.99,,,-99.99,,2013-03-20 10:03:00,
2013-03-20 04:12:00,30.0,11.0,-100.00,North,-999,-999.0,-999.0,45,-99.99,,,-99.99,,2013-03-20 10:12:00,
2013-03-20 04:22:00,30.0,11.0,-100.00,North,-999,-999.0,-999.0,45,-99.99,,,-99.99,,2013-03-20 10:22:00,
2013-03-20 04:32:00,30.0,11.0,-100.00,North,-999,-999.0,-999.0,45,-99.99,,,-99.99,,2013-03-20 10:32:00,
2013-03-20 04:42:00,29.0,11.0,-100.00,North,-999,-999.0,-999.0,45,-99.99,,,-99.99,,2013-03-20 10:42:00,
2013-03-20 04:53:00,29.0,11.0,-100.00,North,-999,-999.0,-999.0,45,-99.99,,,-99.99,,2013-03-20 10:53:00,
2013-03-20 05:02:00,29.0,11.0,-100.00,North,-999,-999.0,-999.0,45,-99.99,,,-99.99,,2013-03-20 11:02:00,
2013-03-20 05:12:00,29.0,12.0,-100.00,North,-999,-999.0,-999.0,48,-99.99,,,-99.99,,2013-03-20 11:12:00,
2013-03-20 05:22:00,29.0,12.0,-100.00,North,-999,-999.0,-999.0,48,-99.99,,,-99.99,,2013-03-20 11:22:00,
2013-03-20 05:32:00,29.0,12.0,-100.00,North,-999,-999.0,-999.0,48,-99.99,,,-99.99,,2013-03-20 11:32:00,
2013-03-20 05:42:00,29.0,12.0,-100.00,North,-999,-999.0,-999.0,47,-99.99,,,-99.99,,2013-03-20 11:42:00,
2013-03-20 05:52:00,29.0,12.0,-100.00,North,-999,-999.0,-999.0,47,-99.99,,,-99.99,,2013-03-20 11:52:00,
2013-03-20 06:02:00,29.0,12.0,-100.00,North,-999,-999.0,-999.0,47,-99.99,,,-99.99,,2013-03-20 12:02:00,
2013-03-20 06:12:00,30.0,14.0,-100.00,North,-999,-999.0,-999.0,51,-99.99,,,-99.99,,2013-03-20 12:12:00,
2013-03-20 06:22:00,30.0,14.0,-100.00,North,-999,-999.0,-999.0,51,-99.99,,,-99.99,,2013-03-20 12:22:00,
2013-03-20 06:32:00,30.0,14.0,-100.00,North,-999,-999.0,-999.0,51,-99.99,,,-99.99,,2013-03-20 12:32:00,
2013-03-20 06:42:00,30.0,15.0,-100.00,North,-999,-999.0,-999.0,53,-99.99,,,-99.99,,2013-03-20 12:42:00,
2013-03-20 06:52:00,30.0,15.0,-100.00,North,-999,-999.0,-999.0,53,-99.99,,,-99.99,,2013-03-20 12:52:00,
2013-03-20 07:02:00,30.0,16.0,-100.00,North,-999,-999.0,-999.0,54,-99.99,,,-99.99,,2013-03-20 13:02:00,
2013-03-20 07:12:00,30.0,15.0,-100.00,North,-999,-999.0,-999.0,52,-99.99,,,-99.99,,2013-03-20 13:12:00,
2013-03-20 07:22:00,30.0,15.0,-100.00,North,-999,-999.0,-999.0,52,-99.99,,,-99.99,,2013-03-20 13:22:00,
2013-03-20 07:32:00,30.0,15.0,-100.00,North,-999,-999.0,-999.0,52,-99.99,,,-99.99,,2013-03-20 13:32:00,
2013-03-20 07:42:00,30.0,16.0,-100.00,North,-999,-999.0,-999.0,55,-99.99,,,-99.99,,2013-03-20 13:42:00,
2013-03-20 07:53:00,30.0,16.0,-100.00,North,-999,-999.0,-999.0,55,-99.99,,,-99.99,,2013-03-20 13:53:00,
2013-03-20 08:02:00,30.0,16.0,-100.00,North,-999,-999.0,-999.0,55,-99.99,,,-99.99,,2013-03-20 14:02:00,
2013-03-20 08:12:00,31.0,21.0,-100.00,North,-999,-999.0,-999.0,64,-99.99,,,-99.99,,2013-03-20 14:12:00,
2013-03-20 08:22:00,31.0,21.0,-100.00,North,-999,-999.0,-999.0,64,-99.99,,,-99.99,,2013-03-20 14:22:00,
2013-03-20 08:33:00,31.0,21.0,-100.00,North,-999,-999.0,-999.0,64,-99.99,,,-99.99,,2013-03-20 14:33:00,
2013-03-20 08:42:00,29.0,24.0,-100.00,North,-999,-999.0,-999.0,80,-99.99,,,-99.99,,2013-03-20 14:42:00,
2013-03-20 08:52:00,29.0,24.0,-100.00,North,-999,-999.0,-999.0,80,-99.99,,,-99.99,,2013-03-20 14:52:00,
2013-03-20 09:02:00,29.0,24.0,-100.00,North,-999,-999.0,-999.0,80,-99.99,,,-99.99,,2013-03-20 15:02:00,
2013-03-20 09:12:00,28.0,24.0,-100.00,North,-999,-999.0,-999.0,84,-99.99,,,-99.99,,2013-03-20 15:12:00,
2013-03-20 09:22:00,28.0,24.0,-100.00,North,-999,-999.0,-999.0,84,-99.99,,,-99.99,,2013-03-20 15:22:00,
2013-03-20 09:33:00,28.0,24.0,-100.00,North,-999,-999.0,-999.0,84,-99.99,,,-99.99,,2013-03-20 15:33:00,
2013-03-20 09:43:00,28.0,26.0,-100.00,North,-999,-999.0,-999.0,94,-99.99,,,-99.99,,2013-03-20 15:43:00,
2013-03-20 09:53:00,28.0,26.0,-100.00,North,-999,-999.0,-999.0,94,-99.99,,,-99.99,,2013-03-20 15:53:00,
2013-03-20 10:02:00,28.0,26.0,-100.00,North,-999,-999.0,-999.0,94,-99.99,,,-99.99,,2013-03-20 16:02:00,
2013-03-20 10:12:00,27.0,26.0,-100.00,North,-999,-999.0,-999.0,96,-99.99,,,-99.99,,2013-03-20 16:12:00,
2013-03-20 10:23:00,27.0,26.0,-100.00,North,-999,-999.0,-999.0,96,-99.99,,,-99.99,,2013-03-20 16:23:00,
2013-03-20 10:32:00,27.0,26.0,-100.00,North,-999,-999.0,-999.0,96,-99.99,,,-99.99,,2013-03-20 16:32:00,
2013-03-20 10:42:00,27.0,27.0,-100.00,North,-999,-999.0,-999.0,98,-99.99,,,-99.99,,2013-03-20 16:42:00,
2013-03-20 10:53:00,27.0,27.0,-100.00,North,-999,-999.0,-999.0,98,-99.99,,,-99.99,,2013-03-20 16:53:00,
2013-03-20 11:03:00,28.0,27.0,-100.00,North,-999,-999.0,-999.0,98,-99.99,,,-99.99,,2013-03-20 17:03:00,
2013-03-20 11:11:00,28.0,28.0,-100.00,North,-999,-999.0,-999.0,98,-99.99,,,-99.99,,2013-03-20 17:11:00,
2013-03-20 11:22:00,28.0,28.0,-100.00,North,-999,-999.0,-999.0,98,-99.99,,,-99.99,,2013-03-20 17:22:00,
2013-03-20 11:32:00,28.0,28.0,-100.00,North,-999,-999.0,-999.0,98,-99.99,,,-99.99,,2013-03-20 17:32:00,
2013-03-20 11:42:00,29.0,27.0,-100.00,North,-999,-999.0,-999.0,95,-99.99,,,-99.99,,2013-03-20 17:42:00,
2013-03-20 11:53:00,29.0,27.0,-100.00,North,-999,-999.0,-999.0,95,-99.99,,,-99.99,,2013-03-20 17:53:00,
2013-03-20 12:02:00,29.0,27.0,-100.00,North,-999,-999.0,-999.0,95,-99.99,,,-99.99,,2013-03-20 18:02:00,
2013-03-20 12:12:00,29.0,28.0,-100.00,North,-999,-999.0,-999.0,93,-99.99,,,-99.99,,2013-03-20 18:12:00,
2013-03-20 12:22:00,29.0,28.0,-100.00,North,-999,-999.0,-999.0,93,-99.99,,,-99.99,,2013-03-20 18:22:00,
2013-03-20 12:33:00,29.0,28.0,-100.00,North,-999,-999.0,-999.0,93,-99.99,,,-99.99,,2013-03-20 18:33:00,
2013-03-20 12:42:00,30.0,28.0,-100.00,North,-999,-999.0,-999.0,93,-99.99,,,-99.99,,2013-03-20 18:42:00,
2013-03-20 12:52:00,30.0,28.0,-100.00,North,-999,-999.0,-999.0,93,-99.99,,,-99.99,,2013-03-20 18:52:00,
2013-03-20 13:02:00,30.0,28.0,-100.00,North,-999,-999.0,-999.0,93,-99.99,,,-99.99,,2013-03-20 19:02:00,
2013-03-20 13:12:00,31.0,29.0,-100.00,North,-999,-999.0,-999.0,90,-99.99,,,-99.99,,2013-03-20 19:12:00,
2013-03-20 13:22:00,31.0,29.0,-100.00,North,-999,-999.0,-999.0,90,-99.99,,,-99.99,,2013-03-20 19:22:00,
2013-03-20 13:32:00,31.0,29.0,-100.00,North,-999,-999.0,-999.0,90,-99.99,,,-99.99,,2013-03-20 19:32:00,
2013-03-20 13:42:00,33.0,30.0,-100.00,North,-999,-999.0,-999.0,88,-99.99,,,-99.99,,2013-03-20 19:42:00,
2013-03-20 13:53:00,33.0,30.0,-100.00,North,-999,-999.0,-999.0,88,-99.99,,,-99.99,,2013-03-20 19:53:00,
2013-03-20 14:02:00,33.0,30.0,-100.00,North,-999,-999.0,-999.0,88,-99.99,,,-99.99,,2013-03-20 20:02:00,
2013-03-20 14:12:00,32.0,29.0,-100.00,North,-999,-999.0,-999.0,87,-99.99,,,-99.99,,2013-03-20 20:12:00,
2013-03-20 14:22:00,32.0,29.0,-100.00,North,-999,-999.0,-999.0,87,-99.99,,,-99.99,,2013-03-20 20:22:00,
2013-03-20 14:32:00,32.0,29.0,-100.00,North,-999,-999.0,-999.0,87,-99.99,,,-99.99,,2013-03-20 20:32:00,
2013-03-20 14:42:00,33.0,29.0,-100.00,North,-999,-999.0,-999.0,87,-99.99,,,-99.99,,2013-03-20 20:42:00,
2013-03-20 14:53:00,33.0,29.0,-100.00,North,-999,-999.0,-999.0,87,-99.99,,,-99.99,,2013-03-20 20:53:00,
2013-03-20 15:02:00,33.0,30.0,-100.00,North,-999,-999.0,-999.0,87,-99.99,,,-99.99,,2013-03-20 21:02:00,
2013-03-20 15:12:00,33.0,30.0,-100.00,North,-999,-999.0,-999.0,88,-99.99,,,-99.99,,2013-03-20 21:12:00,
2013-03-20 15:22:00,33.0,30.0,-100.00,North,-999,-999.0,-999.0,88,-99.99,,,-99.99,,2013-03-20 21:22:00,
2013-03-20 15:33:00,33.0,30.0,-100.00,North,-999,-999.0,-999.0,88,-99.99,,,-99.99,,2013-03-20 21:33:00,
2013-03-20 15:42:00,33.0,30.0,-100.00,North,-999,-999.0,-999.0,88,-99.99,,,-99.99,,2013-03-20 21:42:00,
2013-03-20 15:53:00,33.0,30.0,-100.00,North,-999,-999.0,-999.0,88,-99.99,,,-99.99,,2013-03-20 21:53:00,
2013-03-20 16:03:00,34.0,30.0,-100.00,North,-999,-999.0,-999.0,87,-99.99,,,-99.99,,2013-03-20 22:03:00,
2013-03-20 16:12:00,33.0,30.0,-100.00,North,-999,-999.0,-999.0,87,-99.99,,,-99.99,,2013-03-20 22:12:00,
2013-03-20 16:23:00,33.0,30.0,-100.00,North,-999,-999.0,-999.0,87,-99.99,,,-99.99,,2013-03-20 22:23:00,
2013-03-20 16:32:00,33.0,30.0,-100.00,North,-999,-999.0,-999.0,87,-99.99,,,-99.99,,2013-03-20 22:32:00,
2013-03-20 16:42:00,32.0,29.0,-100.00,North,-999,-999.0,-999.0,88,-99.99,,,-99.99,,2013-03-20 22:42:00,
2013-03-20 16:52:00,32.0,29.0,-100.00,North,-999,-999.0,-999.0,88,-99.99,,,-99.99,,2013-03-20 22:52:00,
2013-03-20 17:02:00,33.0,30.0,-100.00,North,-999,-999.0,-999.0,86,-99.99,,,-99.99,,2013-03-20 23:02:00,
2013-03-20 17:12:00,34.0,30.0,-100.00,North,-999,-999.0,-999.0,86,-99.99,,,-99.99,,2013-03-20 23:12:00,
2013-03-20 17:22:00,34.0,30.0,-100.00,North,-999,-999.0,-999.0,86,-99.99,,,-99.99,,2013-03-20 23:22:00,
2013-03-20 17:32:00,34.0,30.0,-100.00,North,-999,-999.0,-999.0,86,-99.99,,,-99.99,,2013-03-20 23:32:00,
2013-03-20 17:42:00,32.0,30.0,-100.00,North,-999,-999.0,-999.0,90,-99.99,,,-99.99,,2013-03-20 23:42:00,
2013-03-20 17:52:00,32.0,30.0,-100.00,North,-999,-999.0,-999.0,90,-99.99,,,-99.99,,2013-03-20 23:52:00,
2013-03-20 18:02:00,32.0,29.0,-100.00,North,-999,-999.0,-999.0,88,-99.99,,,-99.99,,2013-03-21 00:02:00,
2013-03-20 18:12:00,32.0,29.0,-100.00,North,-999,-999.0,-999.0,88,-99.99,,,-99.99,,2013-03-21 00:12:00,
2013-03-20 18:22:00,32.0,29.0,-100.00,North,-999,-999.0,-999.0,88,-99.99,,,-99.99,,2013-03-21 00:22:00,
2013-03-20 18:32:00,32.0,29.0,-100.00,North,-999,-999.0,-999.0,88,-99.99,,,-99.99,,2013-03-21 00:32:00,
2013-03-20 18:42:00,31.0,29.0,-100.00,North,-999,-999.0,-999.0,91,-99.99,,,-99.99,,2013-03-21 00:42:00,
2013-03-20 18:52:00,31.0,29.0,-100.00,North,-999,-999.0,-999.0,91,-99.99,,,-99.99,,2013-03-21 00:52:00,
2013-03-20 19:02:00,31.0,29.0,-100.00,North,-999,-999.0,-999.0,91,-99.99,,,-99.99,,2013-03-21 01:02:00,
2013-03-20 19:11:00,31.0,28.0,-100.00,North,-999,-999.0,-999.0,90,-99.99,,,-99.99,,2013-03-21 01:11:00,
2013-03-20 19:22:00,31.0,28.0,-100.00,North,-999,-999.0,-999.0,90,-99.99,,,-99.99,,2013-03-21 01:22:00,
2013-03-20 19:32:00,31.0,28.0,-100.00,North,-999,-999.0,-999.0,90,-99.99,,,-99.99,,2013-03-21 01:32:00,
2013-03-20 19:42:00,31.0,27.0,-100.00,North,-999,-999.0,-999.0,84,-99.99,,,-99.99,,2013-03-21 01:42:00,
2013-03-20 19:52:00,31.0,27.0,-100.00,North,-999,-999.0,-999.0,84,-99.99,,,-99.99,,2013-03-21 01:52:00,
2013-03-20 20:02:00,31.0,27.0,-100.00,North,-999,-999.0,-999.0,83,-99.99,,,-99.99,,2013-03-21 02:02:00,
2013-03-20 20:12:00,31.0,26.0,-100.00,North,-999,-999.0,-999.0,79,-99.99,,,-99.99,,2013-03-21 02:12:00,
2013-03-20 20:22:00,31.0,26.0,-100.00,North,-999,-999.0,-999.0,79,-99.99,,,-99.99,,2013-03-21 02:22:00,
2013-03-20 20:32:00,31.0,26.0,-100.00,North,-999,-999.0,-999.0,79,-99.99,,,-99.99,,2013-03-21 02:32:00,
2013-03-20 20:42:00,31.0,26.0,-100.00,North,-999,-999.0,-999.0,79,-99.99,,,-99.99,,2013-03-21 02:42:00,
2013-03-20 21:02:00,31.0,27.0,-100.00,North,-999,-999.0,-999.0,85,-99.99,,,-99.99,,2013-03-21 03:02:00,
2013-03-20 21:12:00,30.0,28.0,-100.00,North,-999,-999.0,-999.0,91,-99.99,,,-99.99,,2013-03-21 03:12:00,
2013-03-20 21:22:00,30.0,28.0,-100.00,North,-999,-999.0,-999.0,91,-99.99,,,-99.99,,2013-03-21 03:22:00,
2013-03-20 21:32:00,30.0,28.0,-100.00,North,-999,-999.0,-999.0,91,-99.99,,,-99.99,,2013-03-21 03:32:00,
2013-03-20 21:43:00,29.0,28.0,-100.00,North,-999,-999.0,-999.0,96,-99.99,,,-99.99,,2013-03-21 03:43:00,
2013-03-20 21:53:00,29.0,28.0,-100.00,North,-999,-999.0,-999.0,96,-99.99,,,-99.99,,2013-03-21 03:53:00,
2013-03-20 22:02:00,29.0,27.0,-100.00,North,-999,-999.0,-999.0,92,-99.99,,,-99.99,,2013-03-21 04:02:00,
2013-03-20 22:12:00,29.0,27.0,-100.00,North,-999,-999.0,-999.0,93,-99.99,,,-99.99,,2013-03-21 04:12:00,
2013-03-20 22:22:00,29.0,27.0,-100.00,North,-999,-999.0,-999.0,93,-99.99,,,-99.99,,2013-03-21 04:22:00,
2013-03-20 22:32:00,29.0,27.0,-100.00,North,-999,-999.0,-999.0,93,-99.99,,,-99.99,,2013-03-21 04:32:00,
2013-03-20 22:43:00,28.0,27.0,-100.00,North,-999,-999.0,-999.0,94,-99.99,,,-99.99,,2013-03-21 04:43:00,
2013-03-20 22:53:00,28.0,27.0,-100.00,North,-999,-999.0,-999.0,94,-99.99,,,-99.99,,2013-03-21 04:53:00,
2013-03-20 23:02:00,28.0,27.0,-100.00,North,-999,-999.0,-999.0,96,-99.99,,,-99.99,,2013-03-21 05:02:00,
2013-03-20 23:12:00,28.0,27.0,-100.00,North,-999,-999.0,-999.0,97,-99.99,,,-99.99,,2013-03-21 05:12:00,
2013-03-20 23:22:00,28.0,27.0,-100.00,North,-999,-999.0,-999.0,97,-99.99,,,-99.99,,2013-03-21 05:22:00,
2013-03-20 23:43:00,27.0,27.0,-100.00,North,-999,-999.0,-999.0,96,-99.99,,,-99.99,,2013-03-21 05:43:00,
2013-03-20 23:52:00,27.0,27.0,-100.00,North,-999,-999.0,-999.0,96,-99.99,,,-99.99,,2013-03-21 05:52:00,